Overview Statistics Trail Chart Weather Telemetry Raw packets
 

This is the latest recevied weather packets stored in our database for station/object SV9TNF-52. If no packets are shown the sender has not sent any weather packets the latest 10 day(s).

<< 88 89 90 91 92 93 94 >>
Time Temp. Humidity Pressure Rain* Wind** Luminosity Snow
1788029818 26.11° C 55% 1021.7 hPa 0 mm 1.79 m/s, 64° - -
1788029518 26.11° C 55% 1021.7 hPa 0 mm 0.89 m/s, 107° - -
1788029218 26.11° C 54% 1021.7 hPa 0 mm 4.02 m/s, 94° - -
1788028918 26.11° C 54% 1021.7 hPa 0 mm 1.79 m/s, 82° - -
1788028618 26.11° C 58% 1021.7 hPa 0 mm 4.02 m/s, 4° - -
1788028318 26.11° C 59% 1021.7 hPa 0 mm 4.02 m/s, 66° - -
1788028018 26.11° C 59% 1021.7 hPa 0 mm 4.02 m/s, 35° - -
1788027718 26.11° C 57% 1021.7 hPa 0 mm 2.68 m/s, 76° - -
1788027418 26.11° C 57% 1021.7 hPa 0 mm 2.68 m/s, 82° - -
1788027117 26.11° C 57% 1021 hPa 0 mm 4.92 m/s, 0° - -
1788026817 26.11° C 60% 1021 hPa 0 mm 2.24 m/s, 63° - -
1788026517 26.11° C 59% 1021 hPa 0 mm 1.79 m/s, 75° - -
1788026217 26.11° C 59% 1021 hPa 0 mm 3.13 m/s, 57° - -
1788025917 26.11° C 60% 1021 hPa 0 mm 5.81 m/s, 22° - -
1788025617 26.11° C 61% 1020.7 hPa 0 mm 2.24 m/s, 356° - -
1788025317 26.11° C 61% 1020.7 hPa 0 mm 5.36 m/s, 180° - -
1788025017 26.11° C 59% 1020.7 hPa 0 mm 2.68 m/s, 82° - -
1788024716 26.11° C 60% 1020.7 hPa 0 mm 7.15 m/s, 90° - -
1788024417 26.11° C 59% 1020.7 hPa 0 mm 1.79 m/s, 86° - -
1788024116 26.11° C 58% 1020.7 hPa 0 mm 1.34 m/s, 88° - -
1788023817 26.11° C 58% 1020.7 hPa 0 mm 6.71 m/s, 84° - -
1788023516 26.11° C 59% 1020.7 hPa 0 mm 4.92 m/s, 107° - -
1788023216 26.11° C 59% 1020.7 hPa 0 mm 4.02 m/s, 63° - -
1788022916 26.11° C 58% 1020.7 hPa 0 mm 2.68 m/s, 107° - -
1788022616 26.11° C 58% 1020.7 hPa 0 mm 3.58 m/s, 109° - -

* Rain latest hour (hover to see other rain measurements)
** Current wind speed in m/s (hover to see current wind gust speed)